| time (UTC) | temp F | wind direction | speed MPH | gust MPH | rain 1hr in | rain 24hr in | rain mn in | humidity % | barometer mb |
| 20260504035328 | 70 | 325 | 4.0 | 0.0 | 0.00 | 0.00 | 0.00 | 66 | 1017.6 |
| 20260504034817 | 70 | 320 | 4.0 | 0.0 | 0.00 | 0.00 | 0.00 | 63 | 1017.6 |
| 20260504034318 | 70 | 311 | 4.0 | 0.0 | 0.00 | 0.00 | 0.00 | 60 | 1017.6 |
| 20260504033816 | 70 | 297 | 5.0 | 0.0 | 0.00 | 0.00 | 0.00 | 67 | 1017.6 |
| 20260504033337 | 70 | 302 | 5.0 | 0.0 | 0.00 | 0.00 | 0.00 | 65 | 1017.6 |
| 20260504032818 | 70 | 293 | 5.0 | 0.0 | 0.00 | 0.00 | 0.00 | 68 | 1017.7 |
| 20260504032339 | 70 | 286 | 5.0 | 0.0 | 0.00 | 0.00 | 0.00 | 70 | 1017.7 |
| 20260504031828 | 70 | 284 | 4.0 | 0.0 | 0.00 | 0.00 | 0.00 | 69 | 1017.7 |
| 20260504031324 | 70 | 282 | 4.0 | 0.0 | 0.00 | 0.00 | 0.00 | 67 | 1017.7 |
| 20260504030839 | 70 | 273 | 4.0 | 0.0 | 0.00 | 0.00 | 0.00 | 67 | 1017.7 |
| 20260504030336 | 70 | 283 | 4.0 | 0.0 | 0.00 | 0.00 | 0.00 | 70 | 1017.7 |
| 20260504025831 | 70 | 275 | 4.0 | 0.0 | 0.00 | 0.00 | 0.00 | 69 | 1017.8 |
| 20260504025319 | 70 | 271 | 4.0 | 0.0 | 0.00 | 0.00 | 0.00 | 68 | 1017.8 |
| 20260504024817 | 70 | 263 | 5.0 | 0.0 | 0.00 | 0.00 | 0.00 | 69 | 1017.7 |
| 20260504024404 | 71 | 252 | 5.0 | 0.0 | 0.00 | 0.00 | 0.00 | 67 | 1017.8 |
| 20260504023832 | 71 | 252 | 6.0 | 0.0 | 0.00 | 0.00 | 0.00 | 68 | 1017.7 |
| 20260504023350 | 71 | 251 | 6.0 | 0.0 | 0.00 | 0.00 | 0.00 | 68 | 1017.7 |
| 20260504022853 | 71 | 251 | 6.0 | 0.0 | 0.00 | 0.00 | 0.00 | 67 | 1017.6 |
| 20260504022321 | 71 | 252 | 6.0 | 0.0 | 0.00 | 0.00 | 0.00 | 67 | 1017.6 |
| 20260504021817 | 71 | 258 | 5.0 | 0.0 | 0.00 | 0.00 | 0.00 | 69 | 1017.6 |
| 20260504021332 | 71 | 250 | 5.0 | 0.0 | 0.00 | 0.00 | 0.00 | 69 | 1017.5 |
| 20260504020829 | 71 | 250 | 5.0 | 0.0 | 0.00 | 0.00 | 0.00 | 69 | 1017.4 |
| 20260504020319 | 71 | 253 | 6.0 | 0.0 | 0.00 | 0.00 | 0.00 | 69 | 1017.3 |
| 20260504015815 | 71 | 244 | 7.0 | 0.0 | 0.00 | 0.00 | 0.00 | 68 | 1017.3 |
| 20260504015326 | 71 | 257 | 7.0 | 0.0 | 0.00 | 0.00 | 0.00 | 68 | 1017.4 |
| 20260504014828 | 71 | 252 | 7.0 | 0.0 | 0.00 | 0.00 | 0.00 | 69 | 1017.2 |
| 20260504014324 | 71 | 245 | 7.0 | 0.0 | 0.00 | 0.00 | 0.00 | 66 | 1017.1 |
| 20260504013830 | 71 | 227 | 7.0 | 0.0 | 0.00 | 0.00 | 0.00 | 66 | 1017.1 |
| 20260504013327 | 71 | 245 | 8.0 | 0.0 | 0.00 | 0.00 | 0.00 | 68 | 1017.1 |
| 20260504012823 | 71 | 240 | 8.0 | 0.0 | 0.00 | 0.00 | 0.00 | 68 | 1017.0 |
| 20260504012344 | 71 | 236 | 8.0 | 0.0 | 0.00 | 0.00 | 0.00 | 66 | 1016.9 |
| 20260504011841 | 71 | 237 | 9.0 | 0.0 | 0.00 | 0.00 | 0.00 | 64 | 1016.9 |
| 20260504011316 | 71 | 252 | 9.0 | 0.0 | 0.00 | 0.00 | 0.00 | 64 | 1016.8 |
| 20260504010825 | 71 | 229 | 8.0 | 0.0 | 0.00 | 0.00 | 0.00 | 65 | 1016.8 |
| 20260504010320 | 71 | 245 | 8.0 | 0.0 | 0.00 | 0.00 | 0.00 | 67 | 1016.7 |
| 20260504005815 | 71 | 242 | 7.0 | 0.0 | 0.00 | 0.00 | 0.00 | 64 | 1016.6 |
| 20260504005333 | 71 | 241 | 7.0 | 0.0 | 0.00 | 0.00 | 0.00 | 63 | 1016.6 |
| 20260504004821 | 71 | 234 | 7.0 | 0.0 | 0.00 | 0.00 | 0.00 | 63 | 1016.6 |
| 20260504004320 | 71 | 221 | 7.0 | 0.0 | 0.00 | 0.00 | 0.00 | 63 | 1016.6 |
| 20260504003814 | 71 | 236 | 8.0 | 0.0 | 0.00 | 0.00 | 0.00 | 63 | 1016.6 |
| 20260504003332 | 72 | 244 | 8.0 | 0.0 | 0.00 | 0.00 | 0.00 | 65 | 1016.6 |
| 20260504002852 | 71 | 211 | 7.0 | 0.0 | 0.00 | 0.00 | 0.00 | 65 | 1016.5 |
| 20260504002332 | 72 | 256 | 7.0 | 0.0 | 0.00 | 0.00 | 0.00 | 63 | 1016.4 |
| 20260504001821 | 71 | 241 | 8.0 | 0.0 | 0.00 | 0.00 | 0.00 | 63 | 1016.4 |
| 20260504001327 | 72 | 233 | 8.0 | 0.0 | 0.00 | 0.00 | 0.00 | 62 | 1016.3 |
| 20260504000814 | 72 | 237 | 8.0 | 0.0 | 0.00 | 0.00 | 0.00 | 63 | 1016.4 |
| 20260504000332 | 72 | 242 | 8.0 | 0.0 | 0.00 | 0.00 | 0.00 | 61 | 1016.3 |
| 20260503235826 | 72 | 252 | 8.0 | 0.0 | 0.00 | 0.00 | 0.00 | 60 | 1016.3 |
| 20260503235324 | 72 | 232 | 7.0 | 0.0 | 0.00 | 0.00 | 0.00 | 57 | 1016.3 |
| 20260503234839 | 72 | 242 | 8.0 | 0.0 | 0.00 | 0.00 | 0.00 | 57 | 1016.3 |
| 20260503234338 | 73 | 238 | 7.0 | 0.0 | 0.00 | 0.00 | 0.00 | 64 | 1016.4 |
| 20260503233830 | 73 | 250 | 6.0 | 0.0 | 0.00 | 0.00 | 0.00 | 58 | 1016.4 |
| 20260503233345 | 72 | 234 | 8.0 | 0.0 | 0.00 | 0.00 | 0.00 | 61 | 1016.3 |
| 20260503232819 | 72 | 220 | 8.0 | 0.0 | 0.00 | 0.00 | 0.00 | 58 | 1016.3 |
| 20260503232405 | 72 | 232 | 8.0 | 0.0 | 0.00 | 0.00 | 0.00 | 57 | 1016.4 |
| 20260503231826 | 72 | 224 | 8.0 | 0.0 | 0.00 | 0.00 | 0.00 | 59 | 1016.4 |
| 20260503231345 | 73 | 233 | 8.0 | 0.0 | 0.00 | 0.00 | 0.00 | 57 | 1016.4 |
| 20260503230844 | 73 | 238 | 8.0 | 0.0 | 0.00 | 0.00 | 0.00 | 59 | 1016.4 |
| 20260503225327 | 73 | 226 | 8.0 | 0.0 | 0.00 | 0.00 | 0.00 | 56 | 1016.3 |
| 20260503224821 | 73 | 249 | 7.0 | 0.0 | 0.00 | 0.00 | 0.00 | 52 | 1016.3 |
| 20260503224314 | 73 | 231 | 6.0 | 0.0 | 0.00 | 0.00 | 0.00 | 57 | 1016.2 |
| 20260503223853 | 73 | 240 | 6.0 | 0.0 | 0.00 | 0.00 | 0.00 | 54 | 1016.3 |
| 20260503223319 | 73 | 232 | 6.0 | 0.0 | 0.00 | 0.00 | 0.00 | 55 | 1016.3 |
| 20260503222815 | 75 | 245 | 7.0 | 0.0 | 0.00 | 0.00 | 0.00 | 50 | 1016.2 |
| 20260503222333 | 75 | 307 | 7.0 | 0.0 | 0.00 | 0.00 | 0.00 | 50 | 1016.2 |
| 20260503221818 | 75 | 281 | 8.0 | 0.0 | 0.00 | 0.00 | 0.00 | 43 | 1016.2 |
| 20260503221328 | 75 | 286 | 6.0 | 0.0 | 0.00 | 0.00 | 0.00 | 45 | 1016.2 |
| 20260503220828 | 75 | 291 | 6.0 | 0.0 | 0.00 | 0.00 | 0.00 | 39 | 1016.3 |
| 20260503220333 | 75 | 285 | 7.0 | 0.0 | 0.00 | 0.00 | 0.00 | 45 | 1016.4 |
| 20260503215825 | 75 | 290 | 9.0 | 0.0 | 0.00 | 0.00 | 0.00 | 42 | 1016.4 |
| 20260503215320 | 75 | 296 | 9.0 | 0.0 | 0.00 | 0.00 | 0.00 | 47 | 1016.4 |
| 20260503214831 | 75 | 299 | 8.0 | 0.0 | 0.00 | 0.00 | 0.00 | 48 | 1016.5 |
| 20260503214327 | 75 | 306 | 7.0 | 0.0 | 0.00 | 0.00 | 0.00 | 45 | 1016.5 |
| 20260503213827 | 75 | 290 | 7.0 | 0.0 | 0.00 | 0.00 | 0.00 | 40 | 1016.5 |
| 20260503213400 | 75 | 316 | 7.0 | 0.0 | 0.00 | 0.00 | 0.00 | 43 | 1016.5 |
| 20260503212833 | 75 | 300 | 6.0 | 0.0 | 0.00 | 0.00 | 0.00 | 39 | 1016.6 |
| 20260503212319 | 75 | 288 | 5.0 | 0.0 | 0.00 | 0.00 | 0.00 | 46 | 1016.6 |
| 20260503211834 | 75 | 290 | 6.0 | 0.0 | 0.00 | 0.00 | 0.00 | 37 | 1016.7 |
| 20260503211328 | 75 | 263 | 7.0 | 0.0 | 0.00 | 0.00 | 0.00 | 37 | 1016.8 |
| 20260503210822 | 75 | 300 | 7.0 | 0.0 | 0.00 | 0.00 | 0.00 | 46 | 1016.8 |
| 20260503210320 | 75 | 303 | 8.0 | 0.0 | 0.00 | 0.00 | 0.00 | 41 | 1016.8 |
| 20260503205833 | 75 | 294 | 7.0 | 0.0 | 0.00 | 0.00 | 0.00 | 47 | 1016.9 |
| 20260503205321 | 75 | 293 | 7.0 | 0.0 | 0.00 | 0.00 | 0.00 | 43 | 1016.9 |
| 20260503204819 | 75 | 285 | 6.0 | 0.0 | 0.00 | 0.00 | 0.00 | 40 | 1016.9 |
| 20260503204332 | 75 | 303 | 6.0 | 0.0 | 0.00 | 0.00 | 0.00 | 43 | 1017.0 |
| 20260503203816 | 75 | 300 | 6.0 | 0.0 | 0.00 | 0.00 | 0.00 | 44 | 1017.0 |
| 20260503203350 | 75 | 292 | 6.0 | 0.0 | 0.00 | 0.00 | 0.00 | 39 | 1017.1 |
| 20260503202823 | 74 | 293 | 6.0 | 0.0 | 0.00 | 0.00 | 0.00 | 41 | 1017.2 |
| 20260503202324 | 74 | 311 | 6.0 | 0.0 | 0.00 | 0.00 | 0.00 | 46 | 1017.3 |
| 20260503201833 | 74 | 308 | 7.0 | 0.0 | 0.00 | 0.00 | 0.00 | 45 | 1017.4 |
| 20260503201325 | 74 | 293 | 7.0 | 0.0 | 0.00 | 0.00 | 0.00 | 40 | 1017.4 |
| 20260503200826 | 74 | 286 | 7.0 | 0.0 | 0.00 | 0.00 | 0.00 | 47 | 1017.4 |
| 20260503200331 | 74 | 319 | 6.0 | 0.0 | 0.00 | 0.00 | 0.00 | 42 | 1017.4 |
| 20260503195824 | 74 | 325 | 5.0 | 0.0 | 0.00 | 0.00 | 0.00 | 47 | 1017.6 |
| 20260503195319 | 74 | 299 | 4.0 | 0.0 | 0.00 | 0.00 | 0.00 | 38 | 1017.8 |
| 20260503194820 | 75 | 317 | 5.0 | 0.0 | 0.00 | 0.00 | 0.00 | 44 | 1017.9 |
| 20260503194320 | 74 | 336 | 7.0 | 0.0 | 0.00 | 0.00 | 0.00 | 40 | 1018.0 |
| 20260503193837 | 74 | 321 | 7.0 | 0.0 | 0.00 | 0.00 | 0.00 | 37 | 1018.1 |
| 20260503193325 | 74 | 315 | 6.0 | 0.0 | 0.00 | 0.00 | 0.00 | 38 | 1018.2 |
| 20260503192822 | 74 | 303 | 6.0 | 0.0 | 0.00 | 0.00 | 0.00 | 45 | 1018.2 |
| 20260503192340 | 74 | 304 | 5.0 | 0.0 | 0.00 | 0.00 | 0.00 | 36 | 1018.3 |
| 20260503191824 | 74 | 346 | 5.0 | 0.0 | 0.00 | 0.00 | 0.00 | 42 | 1018.4 |
| 20260503191341 | 73 | 311 | 5.0 | 0.0 | 0.00 | 0.00 | 0.00 | 37 | 1018.5 |
| 20260503190840 | 73 | 280 | 5.0 | 0.0 | 0.00 | 0.00 | 0.00 | 41 | 1018.7 |
| 20260503190329 | 73 | 313 | 5.0 | 0.0 | 0.00 | 0.00 | 0.00 | 45 | 1018.8 |
| 20260503185822 | 73 | 304 | 6.0 | 0.0 | 0.00 | 0.00 | 0.00 | 40 | 1018.9 |
| 20260503185336 | 73 | 304 | 7.0 | 0.0 | 0.00 | 0.00 | 0.00 | 44 | 1018.9 |
| 20260503184844 | 73 | 281 | 7.0 | 0.0 | 0.00 | 0.00 | 0.00 | 43 | 1019.0 |
| 20260503184316 | 73 | 305 | 7.0 | 0.0 | 0.00 | 0.00 | 0.00 | 39 | 1019.0 |
| 20260503183834 | 73 | 298 | 6.0 | 0.0 | 0.00 | 0.00 | 0.00 | 42 | 1019.1 |
| 20260503183348 | 73 | 303 | 5.0 | 0.0 | 0.00 | 0.00 | 0.00 | 41 | 1019.2 |
| 20260503182848 | 73 | 321 | 4.0 | 0.0 | 0.00 | 0.00 | 0.00 | 41 | 1019.3 |
| 20260503182319 | 73 | 319 | 4.0 | 0.0 | 0.00 | 0.00 | 0.00 | 38 | 1019.3 |
| 20260503181855 | 73 | 333 | 5.0 | 0.0 | 0.00 | 0.00 | 0.00 | 37 | 1019.4 |
| 20260503181329 | 72 | 320 | 6.0 | 0.0 | 0.00 | 0.00 | 0.00 | 39 | 1019.4 |
| 20260503180829 | 72 | 315 | 7.0 | 0.0 | 0.00 | 0.00 | 0.00 | 38 | 1019.3 |
| 20260503180337 | 72 | 304 | 6.0 | 0.0 | 0.00 | 0.00 | 0.00 | 44 | 1019.3 |
| 20260503175840 | 72 | 328 | 6.0 | 0.0 | 0.00 | 0.00 | 0.00 | 36 | 1019.3 |
| 20260503175344 | 72 | 309 | 7.0 | 0.0 | 0.00 | 0.00 | 0.00 | 39 | 1019.3 |
| 20260503174823 | 71 | 321 | 9.0 | 0.0 | 0.00 | 0.00 | 0.00 | 39 | 1019.4 |
| 20260503174341 | 71 | 311 | 8.0 | 0.0 | 0.00 | 0.00 | 0.00 | 43 | 1019.3 |
| 20260503173811 | 71 | 326 | 6.0 | 0.0 | 0.00 | 0.00 | 0.00 | 43 | 1019.3 |
| 20260503173320 | 72 | 332 | 7.0 | 0.0 | 0.00 | 0.00 | 0.00 | 40 | 1019.4 |
| 20260503172813 | 71 | 317 | 7.0 | 0.0 | 0.00 | 0.00 | 0.00 | 41 | 1019.5 |
| 20260503172331 | 72 | 320 | 6.0 | 0.0 | 0.00 | 0.00 | 0.00 | 43 | 1019.5 |
| 20260503171845 | 72 | 331 | 5.0 | 0.0 | 0.00 | 0.00 | 0.00 | 45 | 1019.6 |
| 20260503171341 | 72 | 325 | 5.0 | 0.0 | 0.00 | 0.00 | 0.00 | 37 | 1019.8 |
| 20260503170829 | 71 | 331 | 6.0 | 0.0 | 0.00 | 0.00 | 0.00 | 40 | 1019.8 |
| 20260503170320 | 71 | 321 | 6.0 | 0.0 | 0.00 | 0.00 | 0.00 | 47 | 1019.9 |
| 20260503150823 | 67 | 296 | 6.0 | 0.0 | 0.00 | 0.00 | 0.00 | 64 | 1020.8 |
| 20260503150328 | 67 | 308 | 6.0 | 0.0 | 0.00 | 0.00 | 0.00 | 58 | 1020.9 |
| 20260503131333 | 63 | 302 | 2.0 | 0.0 | 0.00 | 0.00 | 0.00 | 64 | 1020.0 |
| 20260503130829 | 62 | 340 | 2.0 | 0.0 | 0.00 | 0.00 | 0.00 | 65 | 1019.9 |
| 20260503130318 | 62 | 355 | 2.0 | 0.0 | 0.00 | 0.00 | 0.00 | 63 | 1019.8 |
| 20260503110322 | 55 | 63 | 1.0 | 0.0 | 0.00 | 0.00 | 0.00 | 78 | 1019.2 |
| 20260503090347 | 54 | 32 | 1.0 | 0.0 | 0.00 | 0.00 | 0.00 | 75 | 1018.4 |
| 20260503081322 | 54 | 30 | 1.0 | 0.0 | 0.00 | 0.00 | 0.00 | 72 | 1018.3 |
| 20260503080827 | 55 | 31 | 1.0 | 0.0 | 0.00 | 0.00 | 0.00 | 71 | 1018.1 |
| 20260503080323 | 55 | 31 | 1.0 | 0.0 | 0.00 | 0.00 | 0.00 | 71 | 1018.0 |
| 20260503072816 | 57 | 30 | 2.0 | 0.0 | 0.00 | 0.00 | 0.00 | 69 | 1017.9 |
| 20260503072319 | 57 | 30 | 2.0 | 0.0 | 0.00 | 0.00 | 0.00 | 69 | 1017.9 |
| 20260503071834 | 57 | 20 | 2.0 | 0.0 | 0.00 | 0.00 | 0.00 | 69 | 1017.9 |
| 20260503071326 | 57 | 20 | 2.0 | 0.0 | 0.00 | 0.00 | 0.00 | 69 | 1017.9 |
| 20260503070820 | 57 | 21 | 2.0 | 0.0 | 0.00 | 0.00 | 0.00 | 69 | 1017.9 |
| 20260503070332 | 57 | 22 | 2.0 | 0.0 | 0.00 | 0.00 | 0.00 | 69 | 1017.8 |
| 20260503054828 | 60 | 21 | 2.0 | 0.0 | 0.00 | 0.00 | 0.00 | 65 | 1017.6 |
| 20260503054321 | 60 | 21 | 2.0 | 0.0 | 0.00 | 0.00 | 0.00 | 64 | 1017.6 |
| 20260503053839 | 60 | 17 | 2.0 | 0.0 | 0.00 | 0.00 | 0.00 | 65 | 1017.5 |
| 20260503053323 | 60 | 17 | 2.0 | 0.0 | 0.00 | 0.00 | 0.00 | 64 | 1017.6 |
| 20260503052818 | 61 | 32 | 2.0 | 0.0 | 0.00 | 0.00 | 0.00 | 63 | 1017.5 |
| 20260503052329 | 61 | 32 | 2.0 | 0.0 | 0.00 | 0.00 | 0.00 | 64 | 1017.6 |
| 20260503051827 | 61 | 27 | 2.0 | 0.0 | 0.00 | 0.00 | 0.00 | 65 | 1017.6 |
| 20260503051323 | 61 | 26 | 2.0 | 0.0 | 0.00 | 0.00 | 0.00 | 65 | 1017.5 |
| 20260503050836 | 61 | 28 | 2.0 | 0.0 | 0.00 | 0.00 | 0.00 | 66 | 1017.5 |
| 20260503050325 | 61 | 28 | 2.0 | 0.0 | 0.00 | 0.00 | 0.00 | 66 | 1017.5 |
| 20260503045837 | 61 | 27 | 2.0 | 0.0 | 0.00 | 0.00 | 1.65 | 67 | 1017.4 |
| 20260503045331 | 61 | 24 | 2.0 | 0.0 | 0.00 | 0.00 | 1.65 | 67 | 1017.4 |
| 20260503044816 | 61 | 32 | 2.0 | 0.0 | 0.00 | 0.00 | 1.65 | 67 | 1017.3 |
| 20260503044316 | 61 | 32 | 2.0 | 0.0 | 0.00 | 0.00 | 1.65 | 66 | 1017.3 |
| 20260503043829 | 61 | 34 | 2.0 | 0.0 | 0.00 | 0.00 | 1.65 | 64 | 1017.2 |
| 20260503043333 | 61 | 27 | 2.0 | 0.0 | 0.00 | 0.00 | 1.65 | 63 | 1017.1 |
| 20260503042833 | 62 | 27 | 2.0 | 0.0 | 0.00 | 0.00 | 1.65 | 60 | 1017.0 |
| 20260503042327 | 62 | 27 | 3.0 | 0.0 | 0.00 | 0.00 | 1.65 | 59 | 1017.0 |
| 20260503041832 | 62 | 24 | 3.0 | 0.0 | 0.00 | 0.00 | 1.65 | 59 | 1017.0 |
| 20260503041325 | 62 | 26 | 3.0 | 0.0 | 0.00 | 0.00 | 1.65 | 57 | 1016.9 |
| 20260503040822 | 62 | 11 | 3.0 | 0.0 | 0.00 | 0.00 | 1.65 | 58 | 1016.9 |
| 20260503040328 | 63 | 34 | 3.0 | 0.0 | 0.00 | 0.00 | 1.65 | 58 | 1016.9 |
| 20260503035853 | 63 | 28 | 3.0 | 0.0 | 0.00 | 0.00 | 1.65 | 59 | 1016.8 |